Location: Casone le Fosse
(44.6547°N, 12.1103°E)
Time: 12:06:31
(UTC+00:00)

Cosmos 2058 - Pass Details

Date: 29 October 2020
Orbit: 562 x 584 km, 82.5° (Epoch: 27 November)

Event Time Altitude Azimuth Distance (km) Brightness Sun altitude
Rises 17:29:52 0° 353° (N) 2,765 6.4 -15.7°
Reaches altitude 10° 17:32:04 10° 355° (N) 1,864 5.5 -16.1°
Maximum altitude 17:36:09 73° 80° (E) 593 2.7 -16.9°
Drops below altitude 10° 17:40:14 10° 166° (SSE) 1,853 5.4 -17.6°
Sets 17:42:24 0° 168° (SSE) 2,747 6.3 -18.0°
